Regional Weather Roundup
Issued by NWS

Home | Current Version | Previous Version | Text Only | Print | Product List | Glossary On
Versions: 1 2 3 4 5 6 7 8 9 10 11 12 13 14 15 16 17 18 19 20 21 22 23 24 25 26 27 28 29 30 31 32 33 34 35 36 37 38 39 40 41 42 43 44 45 46 47 48 49 50
000
ASUS43 KTOP 282159
RWRKS

WEATHER ROUNDUP FOR KANSAS
NATIONAL WEATHER SERVICE GOODLAND KS
500 PM CDT SAT MAR 28 2015

NOTE:  "FAIR" INDICATES FEW OR NO CLOUDS BELOW 12,000 FEET WITH NO
SIGNIFICANT WEATHER AND/OR OBSTRUCTIONS TO VISIBILITY.

KSZ001>006-013>018-027>032-041>047-282300-
NORTHWEST KANSAS

CITY           SKY/WX    TMP DP  RH WIND       PRES   REMARKS
GOODLAND       SUNNY     81  22  11 SW14G24   29.90F
HAYS           SUNNY     73  39  29 SE15      29.95F
HILL CITY      SUNNY     75  37  25 SE14      29.93F
RUSSELL        SUNNY     72  38  29 SE13      29.94F
$$

KSZ061>065-074>080-084>089-282300-
SOUTHWEST KANSAS

CITY           SKY/WX    TMP DP  RH WIND       PRES   REMARKS
DODGE CITY     SUNNY     79  33  19 SE12      29.94F
ELKHART          N/A     82  30  15 S8          N/A
GARDEN CITY    SUNNY     80  31  16 MISG      29.93F
GREAT BEND     SUNNY     73  39  29 SE15G21   29.95F
LIBERAL        SUNNY     81  34  18 SW7       29.95F
$$

KSZ066>073-081>083-090>101-282300-
SOUTHEAST KANSAS

CITY           SKY/WX    TMP DP  RH WIND       PRES   REMARKS
CHANUTE        SUNNY     62  41  46 SE10G18   30.06S
COFFEYVILLE    SUNNY     66  41  40 E13       30.03F
HUTCHINSON     SUNNY     72  39  30 E13       29.97F
MEDICINE LODGE   N/A     76  41  28 E13G18    29.95F
NEWTON         SUNNY     66  37  34 SE13      30.02S
PARSONS        SUNNY     66  43  43 VRB7      30.05S
WICHITA INTL   SUNNY     73  38  27 E12       29.97F
WICHITA JABRA  SUNNY     70  38  31 E12       29.99S
WINFIELD       SUNNY     73  41  31 E7        29.99S
$$

KSZ007>012-019>026-033>040-048>060-102>105-282300-
NORTHEAST KANSAS

CITY           SKY/WX    TMP DP  RH WIND       PRES   REMARKS
CONCORDIA      SUNNY     64  34  32 SE13G22   29.99F
EMPORIA        SUNNY     61  36  39 E12       30.04S
LAWRENCE       SUNNY     54  31  41 SE13      30.11S
MANHATTAN      SUNNY     63  35  35 SE13G18   30.02F
OLATHE IND     SUNNY     52  32  46 SE13      30.12S
OLATHE EXE     SUNNY     52  31  44 SE10      30.11S
SALINA         SUNNY     68  37  32 E13       29.99F
TOPEKA BILLARD SUNNY     56  33  42 SE9G20    30.09S
TOPEKA FORBES  SUNNY     58  33  39 SE14      30.07F
$$



USA.gov is the U.S. government's official web portal to all federal, state and local government web resources and services.